Back to catalog

QIANFAN-37

AliveCommunicationsPO
NORAD 62238·PAYLOAD·🇨🇳 China

Launched Dec 5, 2024 from Taiyuan Satellite Launch Center

Loading…

Next Passes (next 24 hours)

TLE

FreshSource: Space-Track

Epoch: Sep 14, 2026, 13:56 UTC

1 62238U 24232B   26257.58072613  .00000105  00000-0  14382-3 0  9995
2 62238  89.0153  13.6285 0002083  87.5043 272.6347 13.51029591136416

Track QIANFAN-37 in real time with AllMySat

Download on the App Store